Fort Worth Meacham International Airport
KFTW : now visible

Airfield :











YOU CAN JOIN US ON...

 
LOGIN :

Register | Disclaimer

   EN    FR    IT 

 









Legend :    VFR   Marginal VFR   IFR   Intensive IFR   Very Intensive IFR
Visi :
Ceiling :
>= 8 km
>= 3000ft
5 to 8 km
1000 to 3000 ft
1500m to 5 km
500 to 1000 ft
800 to 1500m
200 to 500 ft
< 800m
< 200 ft
Symbols :   Thunderstorms  Fog  Heavy snow  Heavy precipitations  Wind > 20 kt






- Airport Elevation : 710 ft
- IATA code : FTW


KFTW - Fort Worth Meacham International

CURRENT METAR :
  • 201953Z 15010G23KT 10SM FEW055 33/21 A2973 RMK AO2 SLP056 T03330211

EXPIRED METARs :
  • 201753Z 20011G20KT 10SM FEW048 32/22 A2977 RMK AO2 SLP071 T03220217 10328 20228 56014

TAF KFTW
Valid from the 20 at 18:00 until the 21 at 18:00 UTC


201740Z 2018/2118 18015G25KT P6SM SKC
FM210900 18011KT P6SM BKN020
FM211700 20010KT P6SM SCT025
KZFW FIR / North America



MET'MAP, your aeronautical weather chart ! - Copyright ORBIFLY December 2007 - Disclaimer

ORBIFLY MET'MAP TEAM :

Programming & Development : Alexandra Zaïnal
Concept & original design : Baudouin d'Aumeries
Assistance for programming : Marc-Olivier Méhu
Technical & hardware support : Manuel Goepfert

Contact : metmap@orbifly.com




SOURCES & CREDITS :

   NOAA       Earth
Advisory